| time (UTC) | temp F | wind direction | speed MPH | gust MPH | rain 1hr in | rain 24hr in | rain mn in | humidity % | barometer mb |
| 20260904143659 | 68 | 324 | 0.0 | 0.0 | 0.00 | 0.00 | 0.00 | 89 | 1038.0 |
| 20260904143156 | 67 | 345 | 0.0 | 0.0 | 0.00 | 0.00 | 0.00 | 92 | 1037.9 |
| 20260904142652 | 66 | 329 | 0.0 | 0.0 | 0.00 | 0.00 | 0.00 | 97 | 1038.0 |
| 20260904142148 | 65 | 327 | 0.0 | 0.0 | 0.00 | 0.00 | 0.00 | 99 | 1037.8 |
| 20260904141642 | 64 | 343 | 0.0 | 0.0 | 0.00 | 0.00 | 0.00 | 99 | 1038.0 |
| 20260904141138 | 64 | 325 | 0.0 | 0.0 | 0.00 | 0.00 | 0.00 | 99 | 1037.9 |
| 20260904140633 | 64 | 330 | 0.0 | 0.0 | 0.00 | 0.00 | 0.00 | 99 | 1037.8 |
| 20260904140128 | 64 | 335 | 0.0 | 0.0 | 0.00 | 0.00 | 0.00 | 99 | 1037.8 |
| 20260904135627 | 63 | 333 | 0.0 | 0.0 | 0.00 | 0.00 | 0.00 | 99 | 1037.8 |
| 20260904135123 | 63 | 328 | 0.0 | 0.0 | 0.00 | 0.00 | 0.00 | 99 | 1038.0 |
| 20260904134618 | 62 | 326 | 0.0 | 0.0 | 0.00 | 0.00 | 0.00 | 99 | 1037.9 |
| 20260904134112 | 62 | 333 | 0.0 | 0.0 | 0.00 | 0.00 | 0.00 | 99 | 1038.0 |
| 20260904133607 | 62 | 322 | 0.0 | 0.0 | 0.00 | 0.00 | 0.00 | 99 | 1038.0 |
| 20260904133103 | 62 | 324 | 0.0 | 0.0 | 0.00 | 0.00 | 0.00 | 99 | 1038.0 |
| 20260904132603 | 62 | 324 | 0.0 | 0.0 | 0.00 | 0.00 | 0.00 | 99 | 1037.8 |
| 20260904132057 | 62 | 303 | 0.0 | 0.0 | 0.00 | 0.00 | 0.00 | 99 | 1038.0 |
| 20260904131557 | 62 | 327 | 0.0 | 0.0 | 0.00 | 0.00 | 0.00 | 99 | 1037.9 |
| 20260904131053 | 62 | 319 | 0.0 | 0.0 | 0.00 | 0.00 | 0.00 | 99 | 1038.0 |
| 20260904130552 | 62 | 322 | 0.0 | 0.0 | 0.00 | 0.00 | 0.00 | 99 | 1038.0 |
| 20260904130047 | 61 | 323 | 0.0 | 0.0 | 0.00 | 0.00 | 0.00 | 99 | 1038.1 |
| 20260904125543 | 61 | 323 | 0.0 | 0.0 | 0.00 | 0.00 | 0.00 | 99 | 1038.1 |
| 20260904125038 | 61 | 323 | 0.0 | 0.0 | 0.00 | 0.00 | 0.00 | 99 | 1038.1 |
| 20260904124533 | 61 | 323 | 0.0 | 0.0 | 0.00 | 0.00 | 0.00 | 99 | 1038.2 |
| 20260904124028 | 61 | 327 | 0.0 | 0.0 | 0.00 | 0.00 | 0.00 | 99 | 1038.1 |
| 20260904123523 | 61 | 327 | 0.0 | 0.0 | 0.00 | 0.00 | 0.00 | 99 | 1038.1 |
| 20260904123019 | 61 | 319 | 0.0 | 0.0 | 0.00 | 0.00 | 0.00 | 99 | 1038.1 |
| 20260904122519 | 61 | 322 | 0.0 | 0.0 | 0.00 | 0.00 | 0.00 | 99 | 1038.1 |
| 20260904122013 | 61 | 322 | 0.0 | 0.0 | 0.00 | 0.00 | 0.00 | 99 | 1038.2 |
| 20260904121509 | 61 | 324 | 0.0 | 0.0 | 0.00 | 0.00 | 0.00 | 99 | 1038.2 |
| 20260904121005 | 61 | 324 | 0.0 | 0.0 | 0.00 | 0.00 | 0.00 | 99 | 1038.2 |
| 20260904120501 | 60 | 330 | 0.0 | 0.0 | 0.00 | 0.00 | 0.00 | 99 | 1038.3 |
| 20260904115955 | 60 | 321 | 0.0 | 0.0 | 0.00 | 0.00 | 0.00 | 99 | 1038.2 |
| 20260904115451 | 60 | 323 | 0.0 | 0.0 | 0.00 | 0.00 | 0.00 | 99 | 1038.3 |
| 20260904114951 | 60 | 322 | 0.0 | 0.0 | 0.00 | 0.00 | 0.00 | 99 | 1038.1 |
| 20260904114446 | 61 | 323 | 0.0 | 0.0 | 0.00 | 0.00 | 0.00 | 99 | 1038.1 |
| 20260904113941 | 61 | 322 | 0.0 | 0.0 | 0.00 | 0.00 | 0.00 | 99 | 1038.3 |
| 20260904113440 | 61 | 323 | 0.0 | 0.0 | 0.00 | 0.00 | 0.00 | 99 | 1038.0 |
| 20260904112934 | 61 | 323 | 0.0 | 0.0 | 0.00 | 0.00 | 0.00 | 99 | 1038.1 |
| 20260904112430 | 60 | 324 | 0.0 | 0.0 | 0.00 | 0.00 | 0.00 | 99 | 1038.1 |
| 20260904111925 | 60 | 324 | 0.0 | 0.0 | 0.00 | 0.00 | 0.00 | 99 | 1037.9 |
| 20260904111421 | 60 | 324 | 0.0 | 0.0 | 0.00 | 0.00 | 0.00 | 99 | 1037.9 |
| 20260904110917 | 60 | 324 | 0.0 | 0.0 | 0.00 | 0.00 | 0.00 | 99 | 1038.0 |
| 20260904110415 | 60 | 324 | 0.0 | 0.0 | 0.00 | 0.00 | 0.00 | 99 | 1037.8 |
| 20260904105911 | 60 | 324 | 0.0 | 0.0 | 0.00 | 0.00 | 0.00 | 99 | 1037.6 |
| 20260904105406 | 60 | 324 | 0.0 | 0.0 | 0.00 | 0.00 | 0.00 | 99 | 1037.8 |
| 20260904104901 | 60 | 324 | 0.0 | 0.0 | 0.00 | 0.00 | 0.00 | 99 | 1037.8 |
| 20260904104355 | 60 | 323 | 0.0 | 0.0 | 0.00 | 0.00 | 0.00 | 99 | 1037.7 |
| 20260904103853 | 60 | 325 | 0.0 | 0.0 | 0.00 | 0.00 | 0.00 | 99 | 1037.7 |
| 20260904103352 | 60 | 325 | 0.0 | 0.0 | 0.00 | 0.00 | 0.00 | 99 | 1037.6 |
| 20260904102848 | 60 | 328 | 0.0 | 0.0 | 0.00 | 0.00 | 0.00 | 99 | 1037.7 |
| 20260904102343 | 60 | 328 | 0.0 | 0.0 | 0.00 | 0.00 | 0.00 | 99 | 1037.7 |
| 20260904101839 | 60 | 328 | 0.0 | 0.0 | 0.00 | 0.00 | 0.00 | 99 | 1037.7 |
| 20260904101336 | 60 | 328 | 0.0 | 0.0 | 0.00 | 0.00 | 0.00 | 99 | 1037.7 |
| 20260904100831 | 60 | 328 | 0.0 | 0.0 | 0.00 | 0.00 | 0.00 | 99 | 1037.7 |
| 20260904100327 | 60 | 345 | 0.0 | 0.0 | 0.00 | 0.00 | 0.00 | 99 | 1037.6 |
| 20260904095822 | 60 | 345 | 0.0 | 0.0 | 0.00 | 0.00 | 0.00 | 99 | 1037.6 |
| 20260904095316 | 60 | 346 | 0.0 | 0.0 | 0.00 | 0.00 | 0.00 | 99 | 1037.6 |
| 20260904094812 | 60 | 346 | 0.0 | 0.0 | 0.00 | 0.00 | 0.00 | 99 | 1037.6 |
| 20260904094306 | 60 | 347 | 0.0 | 0.0 | 0.00 | 0.00 | 0.00 | 99 | 1037.6 |
| 20260904093803 | 60 | 348 | 0.0 | 0.0 | 0.00 | 0.00 | 0.00 | 99 | 1037.5 |
| 20260904093257 | 60 | 348 | 0.0 | 0.0 | 0.00 | 0.00 | 0.00 | 99 | 1037.6 |
| 20260904092752 | 60 | 349 | 0.0 | 0.0 | 0.00 | 0.00 | 0.00 | 99 | 1037.5 |
| 20260904092249 | 60 | 347 | 0.0 | 0.0 | 0.00 | 0.00 | 0.00 | 99 | 1037.7 |
| 20260904091744 | 60 | 344 | 0.0 | 0.0 | 0.00 | 0.00 | 0.00 | 99 | 1037.6 |
| 20260904091239 | 60 | 324 | 0.0 | 0.0 | 0.00 | 0.00 | 0.00 | 99 | 1037.5 |
| 20260904090735 | 60 | 323 | 0.0 | 0.0 | 0.00 | 0.00 | 0.00 | 99 | 1037.4 |
| 20260904090230 | 60 | 323 | 0.0 | 0.0 | 0.00 | 0.00 | 0.00 | 99 | 1037.4 |
| 20260904085725 | 60 | 321 | 0.0 | 0.0 | 0.00 | 0.00 | 0.00 | 99 | 1037.6 |
| 20260904085220 | 61 | 321 | 0.0 | 0.0 | 0.00 | 0.00 | 0.00 | 99 | 1037.3 |
| 20260904084714 | 61 | 330 | 0.0 | 0.0 | 0.00 | 0.00 | 0.00 | 99 | 1037.2 |
| 20260904084211 | 61 | 330 | 0.0 | 0.0 | 0.00 | 0.00 | 0.00 | 99 | 1037.4 |
| 20260904083707 | 61 | 331 | 0.0 | 0.0 | 0.00 | 0.00 | 0.00 | 99 | 1037.5 |
| 20260904083203 | 61 | 331 | 0.0 | 0.0 | 0.00 | 0.00 | 0.00 | 99 | 1037.4 |
| 20260904082703 | 61 | 331 | 0.0 | 0.0 | 0.00 | 0.00 | 0.00 | 99 | 1037.4 |
| 20260904082158 | 61 | 330 | 0.0 | 0.0 | 0.00 | 0.00 | 0.00 | 99 | 1037.4 |
| 20260904081654 | 61 | 330 | 0.0 | 0.0 | 0.00 | 0.00 | 0.00 | 99 | 1037.4 |
| 20260904081149 | 61 | 330 | 0.0 | 0.0 | 0.00 | 0.00 | 0.00 | 99 | 1037.5 |
| 20260904080644 | 61 | 330 | 0.0 | 0.0 | 0.00 | 0.00 | 0.00 | 99 | 1037.5 |
| 20260904080140 | 61 | 330 | 0.0 | 0.0 | 0.00 | 0.00 | 0.00 | 99 | 1037.7 |
| 20260904075637 | 61 | 330 | 0.0 | 0.0 | 0.00 | 0.00 | 0.00 | 99 | 1037.5 |
| 20260904075131 | 61 | 330 | 0.0 | 0.0 | 0.00 | 0.00 | 0.00 | 99 | 1037.4 |
| 20260904074625 | 62 | 331 | 0.0 | 0.0 | 0.00 | 0.00 | 0.00 | 99 | 1037.3 |
| 20260904074120 | 62 | 351 | 0.0 | 0.0 | 0.00 | 0.00 | 0.00 | 99 | 1037.3 |
| 20260904073614 | 62 | 354 | 0.0 | 0.0 | 0.00 | 0.00 | 0.00 | 99 | 1037.4 |
| 20260904073111 | 62 | 346 | 0.0 | 0.0 | 0.00 | 0.00 | 0.00 | 99 | 1037.4 |
| 20260904072606 | 62 | 346 | 0.0 | 0.0 | 0.00 | 0.00 | 0.00 | 99 | 1037.7 |
| 20260904072101 | 62 | 346 | 0.0 | 0.0 | 0.00 | 0.00 | 0.00 | 99 | 1037.5 |
| 20260904071557 | 62 | 346 | 0.0 | 0.0 | 0.00 | 0.00 | 0.00 | 99 | 1037.8 |
| 20260904071052 | 62 | 346 | 0.0 | 0.0 | 0.00 | 0.00 | 0.00 | 99 | 1037.9 |
| 20260904070550 | 62 | 347 | 0.0 | 0.0 | 0.00 | 0.00 | 0.00 | 99 | 1037.5 |
| 20260904070045 | 62 | 347 | 0.0 | 0.0 | 0.00 | 0.00 | 0.00 | 99 | 1037.4 |
| 20260904065540 | 62 | 347 | 0.0 | 0.0 | 0.00 | 0.00 | 0.00 | 99 | 1037.4 |
| 20260904065037 | 62 | 347 | 0.0 | 0.0 | 0.00 | 0.00 | 0.00 | 99 | 1037.7 |
| 20260904064533 | 62 | 344 | 0.0 | 0.0 | 0.00 | 0.00 | 0.00 | 99 | 1037.8 |
| 20260904064032 | 62 | 344 | 0.0 | 0.0 | 0.00 | 0.00 | 0.00 | 99 | 1037.9 |
| 20260904063529 | 62 | 343 | 0.0 | 0.0 | 0.00 | 0.00 | 0.00 | 99 | 1037.9 |
| 20260904063023 | 62 | 345 | 0.0 | 0.0 | 0.00 | 0.00 | 0.00 | 99 | 1037.9 |
| 20260904062520 | 62 | 345 | 0.0 | 0.0 | 0.00 | 0.00 | 0.00 | 99 | 1037.8 |
| 20260904062015 | 62 | 328 | 0.0 | 0.0 | 0.00 | 0.00 | 0.00 | 99 | 1037.9 |
| 20260904061511 | 62 | 327 | 0.0 | 0.0 | 0.00 | 0.00 | 0.00 | 99 | 1037.9 |
| 20260904061007 | 62 | 327 | 0.0 | 0.0 | 0.00 | 0.00 | 0.00 | 99 | 1037.9 |
| 20260904060503 | 62 | 327 | 0.0 | 0.0 | 0.00 | 0.00 | 0.00 | 99 | 1038.0 |
| 20260904055959 | 62 | 327 | 0.0 | 0.0 | 0.00 | 0.00 | 0.00 | 99 | 1038.1 |
| 20260904055454 | 62 | 327 | 0.0 | 0.0 | 0.00 | 0.00 | 0.00 | 99 | 1038.0 |
| 20260904054949 | 62 | 327 | 0.0 | 0.0 | 0.00 | 0.00 | 0.00 | 99 | 1038.1 |
| 20260904054445 | 62 | 327 | 0.0 | 0.0 | 0.00 | 0.00 | 0.00 | 99 | 1038.1 |
| 20260904053941 | 62 | 329 | 0.0 | 0.0 | 0.00 | 0.00 | 0.00 | 99 | 1038.2 |
| 20260904053440 | 62 | 329 | 0.0 | 0.0 | 0.00 | 0.00 | 0.00 | 99 | 1038.3 |
| 20260904052936 | 62 | 329 | 0.0 | 0.0 | 0.00 | 0.00 | 0.00 | 99 | 1038.3 |
| 20260904052432 | 62 | 328 | 0.0 | 0.0 | 0.00 | 0.00 | 0.00 | 99 | 1038.6 |
| 20260904051928 | 62 | 332 | 0.0 | 0.0 | 0.00 | 0.00 | 0.00 | 99 | 1038.4 |
| 20260904051424 | 63 | 332 | 0.0 | 0.0 | 0.00 | 0.00 | 0.00 | 99 | 1038.5 |
| 20260904050918 | 62 | 331 | 0.0 | 0.0 | 0.00 | 0.00 | 0.00 | 99 | 1038.6 |
| 20260904050415 | 62 | 330 | 0.0 | 0.0 | 0.00 | 0.00 | 0.00 | 99 | 1038.6 |
| 20260904045914 | 62 | 336 | 0.0 | 0.0 | 0.00 | 0.00 | 0.00 | 99 | 1038.7 |
| 20260904045410 | 62 | 336 | 0.0 | 0.0 | 0.00 | 0.00 | 0.00 | 99 | 1038.6 |
| 20260904044909 | 62 | 336 | 0.0 | 0.0 | 0.00 | 0.00 | 0.00 | 99 | 1038.5 |
| 20260904044406 | 62 | 336 | 0.0 | 0.0 | 0.00 | 0.00 | 0.00 | 99 | 1038.6 |
| 20260904043902 | 62 | 337 | 0.0 | 0.0 | 0.00 | 0.00 | 0.00 | 99 | 1038.6 |
| 20260904043358 | 62 | 337 | 0.0 | 0.0 | 0.00 | 0.00 | 0.00 | 99 | 1038.8 |
| 20260904042853 | 63 | 337 | 0.0 | 0.0 | 0.00 | 0.00 | 0.00 | 99 | 1038.8 |
| 20260904042349 | 62 | 337 | 0.0 | 0.0 | 0.00 | 0.00 | 0.00 | 99 | 1038.8 |
| 20260904041844 | 62 | 337 | 0.0 | 0.0 | 0.00 | 0.00 | 0.00 | 99 | 1038.9 |
| 20260904041340 | 63 | 337 | 0.0 | 0.0 | 0.00 | 0.00 | 0.00 | 99 | 1038.7 |
| 20260904040836 | 63 | 337 | 0.0 | 0.0 | 0.00 | 0.00 | 0.00 | 99 | 1038.7 |
| 20260904040331 | 63 | 337 | 0.0 | 0.0 | 0.00 | 0.00 | 0.00 | 99 | 1038.7 |
| 20260904035827 | 63 | 337 | 0.0 | 0.0 | 0.00 | 0.02 | 0.02 | 99 | 1038.9 |
| 20260904035323 | 63 | 337 | 0.0 | 0.0 | 0.00 | 0.02 | 0.02 | 99 | 1038.8 |
| 20260904034821 | 63 | 337 | 0.0 | 0.0 | 0.00 | 0.02 | 0.02 | 99 | 1038.9 |
| 20260904034317 | 63 | 337 | 0.0 | 0.0 | 0.00 | 0.02 | 0.02 | 99 | 1038.9 |
| 20260904033813 | 63 | 336 | 0.0 | 0.0 | 0.00 | 0.02 | 0.02 | 99 | 1039.0 |
| 20260904033309 | 63 | 336 | 0.0 | 0.0 | 0.00 | 0.02 | 0.02 | 99 | 1038.9 |
| 20260904032805 | 63 | 337 | 0.0 | 0.0 | 0.00 | 0.02 | 0.02 | 99 | 1038.8 |
| 20260904032306 | 64 | 337 | 0.0 | 0.0 | 0.00 | 0.02 | 0.02 | 99 | 1039.0 |
| 20260904031759 | 64 | 336 | 0.0 | 0.0 | 0.00 | 0.02 | 0.02 | 99 | 1039.1 |
| 20260904031254 | 64 | 336 | 0.0 | 0.0 | 0.00 | 0.02 | 0.02 | 99 | 1039.0 |
| 20260904030750 | 64 | 336 | 0.0 | 0.0 | 0.00 | 0.02 | 0.02 | 99 | 1038.9 |
| 20260904030245 | 64 | 336 | 0.0 | 0.0 | 0.00 | 0.02 | 0.02 | 99 | 1039.1 |
| 20260904025736 | 64 | 337 | 0.0 | 0.0 | 0.00 | 0.02 | 0.02 | 99 | 1038.9 |
| 20260904025231 | 64 | 337 | 0.0 | 0.0 | 0.00 | 0.02 | 0.02 | 99 | 1039.0 |
| 20260904024726 | 64 | 337 | 0.0 | 0.0 | 0.00 | 0.02 | 0.02 | 99 | 1039.0 |
| 20260904024221 | 64 | 337 | 0.0 | 0.0 | 0.00 | 0.02 | 0.02 | 99 | 1039.1 |
| 20260904023712 | 64 | 337 | 0.0 | 0.0 | 0.00 | 0.02 | 0.02 | 99 | 1039.1 |
| 20260904023208 | 65 | 337 | 0.0 | 0.0 | 0.00 | 0.02 | 0.02 | 99 | 1039.1 |
| 20260904022707 | 65 | 338 | 0.0 | 0.0 | 0.00 | 0.02 | 0.02 | 99 | 1039.3 |
| 20260904022204 | 65 | 338 | 0.0 | 0.0 | 0.00 | 0.02 | 0.02 | 99 | 1039.1 |
| 20260904021700 | 65 | 342 | 0.0 | 0.0 | 0.00 | 0.02 | 0.02 | 99 | 1039.3 |
| 20260904021154 | 65 | 336 | 0.0 | 0.0 | 0.00 | 0.02 | 0.02 | 99 | 1039.0 |
| 20260904020651 | 65 | 329 | 0.0 | 0.0 | 0.00 | 0.02 | 0.02 | 99 | 1039.1 |
| 20260904020144 | 66 | 0 | 0.0 | 0.0 | 0.00 | 0.02 | 0.02 | 99 | 1039.1 |
| 20260904015644 | 66 | 0 | 0.0 | 0.0 | 0.00 | 0.02 | 0.02 | 99 | 1039.1 |
| 20260904015143 | 65 | 344 | 0.0 | 0.0 | 0.00 | 0.02 | 0.02 | 99 | 1039.2 |
| 20260904014642 | 66 | 346 | 0.0 | 0.0 | 0.00 | 0.02 | 0.02 | 99 | 1039.2 |
| 20260904014138 | 66 | 321 | 0.0 | 0.0 | 0.00 | 0.02 | 0.02 | 99 | 1039.3 |
| 20260904013634 | 66 | 321 | 0.0 | 0.0 | 0.00 | 0.02 | 0.02 | 98 | 1039.3 |
| 20260904013130 | 66 | 334 | 0.0 | 0.0 | 0.00 | 0.02 | 0.02 | 98 | 1039.2 |
| 20260904012626 | 66 | 321 | 0.0 | 0.0 | 0.00 | 0.02 | 0.02 | 98 | 1039.3 |
| 20260904012124 | 66 | 314 | 0.0 | 0.0 | 0.00 | 0.02 | 0.02 | 98 | 1039.3 |
| 20260904011624 | 66 | 314 | 0.0 | 0.0 | 0.00 | 0.02 | 0.02 | 98 | 1039.3 |
| 20260904011119 | 66 | 314 | 0.0 | 0.0 | 0.00 | 0.02 | 0.02 | 98 | 1039.4 |
| 20260904010615 | 67 | 314 | 0.0 | 0.0 | 0.00 | 0.02 | 0.02 | 97 | 1039.3 |
| 20260904010111 | 67 | 314 | 0.0 | 0.0 | 0.00 | 0.02 | 0.02 | 97 | 1039.1 |
| 20260904005606 | 67 | 314 | 0.0 | 0.0 | 0.00 | 0.02 | 0.02 | 97 | 1039.2 |
| 20260904005101 | 67 | 314 | 0.0 | 0.0 | 0.00 | 0.02 | 0.02 | 97 | 1039.3 |
| 20260904004557 | 67 | 314 | 0.0 | 0.0 | 0.00 | 0.02 | 0.02 | 96 | 1039.1 |
| 20260904004051 | 67 | 314 | 0.0 | 0.0 | 0.00 | 0.02 | 0.02 | 96 | 1039.1 |
| 20260904003548 | 68 | 314 | 0.0 | 0.0 | 0.00 | 0.02 | 0.02 | 96 | 1039.1 |
| 20260904003044 | 68 | 314 | 0.0 | 0.0 | 0.00 | 0.02 | 0.02 | 96 | 1038.8 |
| 20260904002539 | 68 | 314 | 0.0 | 0.0 | 0.00 | 0.02 | 0.02 | 95 | 1038.6 |
| 20260904002038 | 68 | 314 | 0.0 | 0.0 | 0.00 | 0.02 | 0.02 | 95 | 1038.8 |
| 20260904001535 | 69 | 314 | 0.0 | 0.0 | 0.00 | 0.02 | 0.02 | 95 | 1038.6 |
| 20260904001033 | 69 | 314 | 0.0 | 0.0 | 0.00 | 0.02 | 0.02 | 94 | 1038.7 |
| 20260904000533 | 69 | 314 | 0.0 | 0.0 | 0.00 | 0.02 | 0.02 | 94 | 1038.7 |
| 20260904000030 | 69 | 314 | 0.0 | 0.0 | 0.00 | 0.02 | 0.02 | 94 | 1038.5 |
| 20260903235524 | 69 | 314 | 0.0 | 0.0 | 0.00 | 0.02 | 0.02 | 94 | 1038.4 |
| 20260903235020 | 69 | 315 | 0.0 | 0.0 | 0.00 | 0.02 | 0.02 | 94 | 1038.4 |
| 20260903234515 | 69 | 317 | 0.0 | 0.0 | 0.00 | 0.02 | 0.02 | 94 | 1038.4 |
| 20260903234010 | 69 | 323 | 0.0 | 0.0 | 0.00 | 0.02 | 0.02 | 93 | 1038.6 |
| 20260903233506 | 70 | 323 | 0.0 | 0.0 | 0.00 | 0.02 | 0.02 | 92 | 1038.4 |
| 20260903233002 | 70 | 324 | 0.0 | 0.0 | 0.00 | 0.02 | 0.02 | 91 | 1038.3 |
| 20260903232457 | 70 | 324 | 0.0 | 0.0 | 0.00 | 0.02 | 0.02 | 91 | 1038.5 |
| 20260903231956 | 71 | 324 | 0.0 | 0.0 | 0.00 | 0.02 | 0.02 | 90 | 1038.3 |
| 20260903231451 | 71 | 324 | 0.0 | 0.0 | 0.00 | 0.02 | 0.02 | 90 | 1038.4 |
| 20260903230946 | 71 | 324 | 0.0 | 0.0 | 0.00 | 0.02 | 0.02 | 89 | 1038.3 |
| 20260903230442 | 72 | 324 | 0.0 | 0.0 | 0.00 | 0.02 | 0.02 | 89 | 1038.6 |
| 20260903225938 | 72 | 352 | 0.0 | 0.0 | 0.00 | 0.02 | 0.02 | 88 | 1038.5 |
| 20260903225433 | 73 | 345 | 0.0 | 0.0 | 0.00 | 0.02 | 0.02 | 88 | 1038.7 |
| 20260903224929 | 73 | 317 | 0.0 | 0.0 | 0.00 | 0.02 | 0.02 | 87 | 1038.6 |
| 20260903224425 | 74 | 333 | 0.0 | 0.0 | 0.00 | 0.02 | 0.02 | 85 | 1038.8 |
| 20260903223921 | 75 | 334 | 0.0 | 0.0 | 0.00 | 0.02 | 0.02 | 86 | 1038.7 |
| 20260903223420 | 75 | 321 | 0.0 | 0.0 | 0.00 | 0.02 | 0.02 | 85 | 1038.4 |
| 20260903222919 | 75 | 324 | 0.0 | 0.0 | 0.00 | 0.02 | 0.02 | 84 | 1038.5 |
| 20260903222415 | 75 | 331 | 0.0 | 0.0 | 0.00 | 0.02 | 0.02 | 83 | 1038.4 |
| 20260903221909 | 76 | 322 | 0.0 | 0.0 | 0.00 | 0.02 | 0.02 | 83 | 1038.3 |
| 20260903221408 | 76 | 337 | 0.0 | 0.0 | 0.00 | 0.02 | 0.02 | 82 | 1038.4 |
| 20260903220906 | 77 | 324 | 0.0 | 0.0 | 0.00 | 0.02 | 0.02 | 81 | 1038.3 |
| 20260903220400 | 78 | 324 | 0.0 | 0.0 | 0.00 | 0.02 | 0.02 | 80 | 1038.5 |
| 20260903215858 | 77 | 323 | 0.0 | 0.0 | 0.00 | 0.02 | 0.02 | 80 | 1038.4 |
| 20260903215355 | 78 | 190 | 0.0 | 0.0 | 0.00 | 0.02 | 0.02 | 80 | 1038.4 |
| 20260903214853 | 79 | 314 | 0.0 | 0.0 | 0.00 | 0.02 | 0.02 | 79 | 1038.4 |
| 20260903214349 | 80 | 331 | 0.0 | 0.0 | 0.00 | 0.02 | 0.02 | 77 | 1038.6 |
| 20260903213848 | 78 | 331 | 0.0 | 0.0 | 0.00 | 0.02 | 0.02 | 79 | 1038.6 |
| 20260903213344 | 78 | 314 | 0.0 | 0.0 | 0.00 | 0.02 | 0.02 | 79 | 1038.5 |
| 20260903212840 | 76 | 344 | 0.0 | 0.0 | 0.00 | 0.02 | 0.02 | 83 | 1038.4 |
| 20260903212336 | 76 | 4 | 0.0 | 0.0 | 0.00 | 0.02 | 0.02 | 82 | 1038.4 |
| 20260903211835 | 76 | 345 | 0.0 | 0.0 | 0.00 | 0.02 | 0.02 | 82 | 1038.4 |
| 20260903211331 | 75 | 356 | 0.0 | 0.0 | 0.00 | 0.02 | 0.02 | 84 | 1038.5 |
| 20260903210827 | 75 | 31 | 0.0 | 0.0 | 0.00 | 0.02 | 0.02 | 83 | 1038.4 |
| 20260903210322 | 75 | 344 | 0.0 | 0.0 | 0.00 | 0.02 | 0.02 | 84 | 1038.6 |
| 20260903205821 | 75 | 328 | 0.0 | 0.0 | 0.00 | 0.02 | 0.02 | 83 | 1038.5 |
| 20260903205316 | 75 | 325 | 0.0 | 0.0 | 0.00 | 0.02 | 0.02 | 84 | 1038.4 |
| 20260903204811 | 76 | 347 | 0.0 | 0.0 | 0.00 | 0.02 | 0.02 | 83 | 1038.3 |
| 20260903204307 | 77 | 321 | 0.0 | 0.0 | 0.00 | 0.02 | 0.02 | 80 | 1038.3 |
| 20260903203803 | 76 | 342 | 0.0 | 0.0 | 0.00 | 0.02 | 0.02 | 83 | 1038.5 |
| 20260903203258 | 77 | 342 | 0.0 | 0.0 | 0.00 | 0.02 | 0.02 | 82 | 1038.5 |
| 20260903202757 | 77 | 342 | 0.0 | 0.0 | 0.00 | 0.02 | 0.02 | 81 | 1038.6 |
| 20260903202254 | 77 | 326 | 0.0 | 0.0 | 0.00 | 0.02 | 0.02 | 81 | 1038.3 |
| 20260903201753 | 77 | 326 | 0.0 | 0.0 | 0.00 | 0.02 | 0.02 | 80 | 1038.4 |
| 20260903201248 | 76 | 322 | 0.0 | 0.0 | 0.00 | 0.02 | 0.02 | 81 | 1038.5 |
| 20260903200747 | 76 | 315 | 0.0 | 0.0 | 0.00 | 0.02 | 0.02 | 81 | 1038.3 |
| 20260903200243 | 77 | 347 | 0.0 | 0.0 | 0.00 | 0.02 | 0.02 | 81 | 1038.5 |
| 20260903195738 | 77 | 303 | 0.0 | 0.0 | 0.00 | 0.02 | 0.02 | 80 | 1038.6 |
| 20260903195234 | 75 | 321 | 0.0 | 0.0 | 0.00 | 0.02 | 0.02 | 81 | 1038.7 |
| 20260903194733 | 76 | 329 | 0.0 | 0.0 | 0.00 | 0.02 | 0.02 | 79 | 1038.8 |
| 20260903194229 | 74 | 289 | 0.0 | 1.0 | 0.00 | 0.02 | 0.02 | 83 | 1038.7 |
| 20260903193724 | 74 | 16 | 0.0 | 0.0 | 0.00 | 0.02 | 0.02 | 85 | 1038.7 |
| 20260903193220 | 74 | 332 | 0.0 | 0.0 | 0.00 | 0.02 | 0.02 | 83 | 1038.8 |
| 20260903192716 | 75 | 17 | 0.0 | 0.0 | 0.00 | 0.02 | 0.02 | 83 | 1038.9 |
| 20260903192211 | 74 | 311 | 0.0 | 0.0 | 0.00 | 0.02 | 0.02 | 84 | 1038.8 |
| 20260903191708 | 73 | 300 | 0.0 | 0.0 | 0.00 | 0.02 | 0.02 | 85 | 1038.8 |
| 20260903191202 | 73 | 336 | 0.0 | 0.0 | 0.00 | 0.02 | 0.02 | 85 | 1038.9 |
| 20260903190656 | 72 | 344 | 0.0 | 0.0 | 0.00 | 0.02 | 0.02 | 86 | 1038.9 |
| 20260903190151 | 73 | 14 | 0.0 | 0.0 | 0.00 | 0.02 | 0.02 | 87 | 1039.1 |
| 20260903185646 | 73 | 344 | 0.0 | 0.0 | 0.00 | 0.02 | 0.02 | 85 | 1038.9 |
| 20260903185141 | 73 | 347 | 0.0 | 0.0 | 0.00 | 0.02 | 0.02 | 85 | 1038.8 |
| 20260903184638 | 72 | 346 | 0.0 | 0.0 | 0.00 | 0.02 | 0.02 | 86 | 1038.9 |
| 20260903184133 | 72 | 322 | 0.0 | 0.0 | 0.00 | 0.02 | 0.02 | 86 | 1038.9 |
| 20260903183632 | 71 | 326 | 0.0 | 0.0 | 0.00 | 0.02 | 0.02 | 87 | 1039.1 |
| 20260903183127 | 71 | 348 | 0.0 | 0.0 | 0.00 | 0.02 | 0.02 | 88 | 1039.1 |
| 20260903182626 | 71 | 303 | 0.0 | 0.0 | 0.00 | 0.02 | 0.02 | 88 | 1039.2 |
| 20260903182122 | 70 | 324 | 0.0 | 0.0 | 0.00 | 0.02 | 0.02 | 89 | 1039.2 |
| 20260903181614 | 70 | 40 | 0.0 | 0.0 | 0.00 | 0.02 | 0.02 | 90 | 1039.4 |
| 20260903181109 | 70 | 328 | 0.0 | 0.0 | 0.00 | 0.02 | 0.02 | 88 | 1039.4 |
| 20260903180604 | 70 | 327 | 0.0 | 0.0 | 0.00 | 0.02 | 0.02 | 89 | 1039.4 |
| 20260903180059 | 69 | 353 | 0.0 | 0.0 | 0.00 | 0.02 | 0.02 | 90 | 1039.5 |
| 20260903175558 | 69 | 342 | 0.0 | 0.0 | 0.00 | 0.02 | 0.02 | 91 | 1039.5 |
| 20260903175057 | 68 | 4 | 0.0 | 0.0 | 0.00 | 0.02 | 0.02 | 92 | 1039.4 |
| 20260903174553 | 68 | 0 | 0.0 | 0.0 | 0.00 | 0.02 | 0.02 | 92 | 1039.6 |
| 20260903174047 | 68 | 350 | 0.0 | 0.0 | 0.00 | 0.02 | 0.02 | 92 | 1039.5 |
| 20260903173542 | 68 | 9 | 0.0 | 0.0 | 0.00 | 0.02 | 0.02 | 91 | 1039.6 |
| 20260903173038 | 68 | 6 | 0.0 | 0.0 | 0.00 | 0.02 | 0.02 | 91 | 1039.6 |
| 20260903172533 | 68 | 322 | 0.0 | 0.0 | 0.00 | 0.02 | 0.02 | 90 | 1039.9 |
| 20260903172028 | 67 | 295 | 0.0 | 0.0 | 0.00 | 0.02 | 0.02 | 91 | 1039.9 |
| 20260903171523 | 67 | 343 | 0.0 | 0.0 | 0.00 | 0.02 | 0.02 | 92 | 1039.8 |
| 20260903171019 | 68 | 5 | 0.0 | 0.0 | 0.00 | 0.02 | 0.02 | 91 | 1040.0 |
| 20260903170517 | 68 | 322 | 0.0 | 0.0 | 0.00 | 0.02 | 0.02 | 91 | 1039.8 |
| 20260903170013 | 67 | 338 | 0.0 | 0.0 | 0.00 | 0.02 | 0.02 | 91 | 1039.9 |
| 20260903165505 | 67 | 14 | 0.0 | 0.0 | 0.00 | 0.02 | 0.02 | 92 | 1039.9 |
| 20260903165001 | 68 | 344 | 0.0 | 0.0 | 0.00 | 0.02 | 0.02 | 91 | 1039.8 |
| 20260903164455 | 68 | 4 | 0.0 | 0.0 | 0.00 | 0.02 | 0.02 | 90 | 1039.8 |
| 20260903163955 | 67 | 336 | 0.0 | 0.0 | 0.00 | 0.02 | 0.02 | 91 | 1039.9 |
| 20260903163451 | 67 | 338 | 0.0 | 0.0 | 0.00 | 0.02 | 0.02 | 91 | 1040.0 |
| 20260903162946 | 66 | 344 | 0.0 | 0.0 | 0.00 | 0.02 | 0.02 | 92 | 1039.8 |
| 20260903162438 | 66 | 285 | 0.0 | 0.0 | 0.00 | 0.02 | 0.02 | 92 | 1039.9 |
| 20260903161933 | 66 | 27 | 0.0 | 0.0 | 0.00 | 0.02 | 0.02 | 93 | 1040.1 |
| 20260903161428 | 66 | 341 | 0.0 | 0.0 | 0.00 | 0.02 | 0.02 | 93 | 1040.1 |
| 20260903160924 | 66 | 345 | 0.0 | 0.0 | 0.00 | 0.02 | 0.02 | 93 | 1040.3 |
| 20260903160423 | 66 | 330 | 0.0 | 0.0 | 0.00 | 0.02 | 0.02 | 93 | 1040.4 |
| 20260903155922 | 65 | 334 | 0.0 | 0.0 | 0.00 | 0.02 | 0.02 | 93 | 1040.6 |
| 20260903155417 | 65 | 335 | 0.0 | 0.0 | 0.00 | 0.02 | 0.02 | 94 | 1040.6 |
| 20260903154913 | 65 | 357 | 0.0 | 0.0 | 0.00 | 0.02 | 0.02 | 94 | 1040.4 |
| 20260903154409 | 64 | 19 | 0.0 | 0.0 | 0.00 | 0.02 | 0.02 | 95 | 1040.4 |
| 20260903153909 | 64 | 33 | 0.0 | 0.0 | 0.00 | 0.02 | 0.02 | 95 | 1040.7 |
| 20260903153404 | 64 | 341 | 0.0 | 0.0 | 0.00 | 0.02 | 0.02 | 95 | 1040.6 |
| 20260903152901 | 64 | 359 | 0.0 | 0.0 | 0.00 | 0.02 | 0.02 | 95 | 1040.6 |
| 20260903152356 | 64 | 352 | 0.0 | 0.0 | 0.00 | 0.02 | 0.02 | 96 | 1040.7 |
| 20260903151852 | 64 | 358 | 0.0 | 0.0 | 0.00 | 0.02 | 0.02 | 96 | 1040.8 |
| 20260903151347 | 64 | 339 | 0.0 | 0.0 | 0.00 | 0.02 | 0.02 | 96 | 1040.9 |
| 20260903150847 | 64 | 346 | 0.0 | 0.0 | 0.00 | 0.02 | 0.02 | 96 | 1041.1 |
| 20260903150341 | 63 | 336 | 0.0 | 0.0 | 0.00 | 0.02 | 0.02 | 96 | 1041.1 |
| 20260903145836 | 63 | 341 | 0.0 | 0.0 | 0.00 | 0.02 | 0.02 | 97 | 1041.0 |
| 20260903145331 | 63 | 344 | 0.0 | 0.0 | 0.00 | 0.02 | 0.02 | 97 | 1040.9 |
| 20260903144830 | 63 | 347 | 0.0 | 0.0 | 0.00 | 0.02 | 0.02 | 97 | 1041.2 |
| 20260903144326 | 63 | 343 | 0.0 | 0.0 | 0.00 | 0.02 | 0.02 | 96 | 1041.1 |